BVG1540 EGCC-LGSR

Flight info

Callsign BVG1540
Flight time N/A
Altitude 35000
Route SANBA N859 HON L15 FINMA DCT CHT DCT ITVIP DCT KONAN DCT KOK UL607 FERDI DCT REMBA DCT ARCKY DCT LIRSU DCT KRH DCT KUNOD DCT GEDSO DCT VEKEN DCT SEHOR DCT DARZA DCT GLOMY DCT INLOT DCT PINDO UL607 ATV UL995 KEA UL607 NETIS M601 PEXAN PEXA1D
Aircraft B739/M-SDE2E3FGHIRWXY/LB1

Departure

Time 2026-05-08 01:42
Airport Manchester Airport (EGCC)

Arrival

Time N/A
Airport Santorini International Airport (LGSR)
Time Latitude Longitude Altitude Speed Heading
2026-05-08 01:01 53.36059 -2.27569 265 ft 0 kts 88°
2026-05-08 01:29 53.36059 -2.27565 265 ft 1 kts 83°
2026-05-08 01:30 53.36059 -2.27557 265 ft 1 kts 92°
2026-05-08 01:30 53.36058 -2.27550 265 ft 1 kts 115°
2026-05-08 01:30 53.36055 -2.27545 265 ft 1 kts 137°
2026-05-08 01:30 53.36051 -2.27542 265 ft 1 kts 156°
2026-05-08 01:31 53.36047 -2.27541 265 ft 1 kts 175°
2026-05-08 01:31 53.36043 -2.27542 265 ft 1 kts 192°
2026-05-08 01:31 53.36008 -2.27559 265 ft 9 kts 197°
2026-05-08 01:31 53.35947 -2.27584 265 ft 9 kts 185°
2026-05-08 01:32 53.35892 -2.27603 265 ft 8 kts 207°
2026-05-08 01:32 53.35841 -2.27641 265 ft 8 kts 203°
2026-05-08 01:32 53.35790 -2.27678 265 ft 7 kts 203°
2026-05-08 01:32 53.35744 -2.27712 265 ft 7 kts 203°
2026-05-08 01:33 53.35695 -2.27718 265 ft 7 kts 176°
2026-05-08 01:33 53.35648 -2.27718 265 ft 7 kts 180°
2026-05-08 01:33 53.35602 -2.27713 265 ft 6 kts 172°
2026-05-08 01:33 53.35567 -2.27700 265 ft 6 kts 159°
2026-05-08 01:34 53.35536 -2.27650 265 ft 6 kts 146°
2026-05-08 01:34 53.35500 -2.27616 265 ft 6 kts 182°
2026-05-08 01:34 53.35473 -2.27658 265 ft 6 kts 231°
2026-05-08 01:34 53.35447 -2.27710 265 ft 5 kts 229°
2026-05-08 01:35 53.35423 -2.27759 265 ft 5 kts 248°
2026-05-08 01:35 53.35409 -2.27815 265 ft 5 kts 248°
2026-05-08 01:35 53.35396 -2.27867 265 ft 5 kts 246°
2026-05-08 01:35 53.35383 -2.27918 265 ft 5 kts 246°
2026-05-08 01:36 53.35370 -2.27967 265 ft 5 kts 246°
2026-05-08 01:36 53.35350 -2.28033 265 ft 8 kts 234°
2026-05-08 01:36 53.35310 -2.28107 265 ft 10 kts 230°
2026-05-08 01:36 53.35257 -2.28188 265 ft 12 kts 225°
2026-05-08 01:37 53.35200 -2.28285 265 ft 13 kts 225°
2026-05-08 01:37 53.35140 -2.28396 265 ft 15 kts 234°
2026-05-08 01:37 53.35073 -2.28534 265 ft 16 kts 231°
2026-05-08 01:37 53.35002 -2.28678 265 ft 17 kts 231°
2026-05-08 01:38 53.34929 -2.28827 265 ft 18 kts 231°
2026-05-08 01:38 53.34847 -2.28996 265 ft 19 kts 231°
2026-05-08 01:38 53.34766 -2.29162 265 ft 19 kts 231°
2026-05-08 01:38 53.34699 -2.29293 265 ft 11 kts 215°
2026-05-08 01:39 53.34623 -2.29296 265 ft 11 kts 173°
2026-05-08 01:39 53.34578 -2.29269 265 ft 3 kts 147°
2026-05-08 01:39 53.34565 -2.29242 265 ft 3 kts 115°
2026-05-08 01:39 53.34562 -2.29209 265 ft 3 kts 84°
2026-05-08 01:40 53.34566 -2.29179 265 ft 3 kts 69°
2026-05-08 01:40 53.34577 -2.29156 265 ft 2 kts 46°
2026-05-08 01:40 53.34589 -2.29131 265 ft 8 kts 51°
2026-05-08 01:40 53.34722 -2.28858 265 ft 57 kts 51°
2026-05-08 01:41 53.35029 -2.28227 265 ft 101 kts 51°
2026-05-08 01:41 53.35582 -2.27090 265 ft 145 kts 51°
2026-05-08 01:41 53.36148 -2.25939 267 ft 175 kts 49°
2026-05-08 01:41 53.36787 -2.24393 689 ft 177 kts 60°
2026-05-08 01:42 53.37325 -2.22689 1184 ft 179 kts 64°
2026-05-08 01:42 53.37535 -2.20780 1652 ft 183 kts 96°
2026-05-08 01:42 53.37042 -2.18903 2149 ft 189 kts 130°
2026-05-08 01:42 53.36309 -2.17942 2373 ft 202 kts 153°
2026-05-08 01:43 53.35047 -2.17500 2714 ft 211 kts 182°
2026-05-08 01:43 53.33753 -2.18056 3294 ft 209 kts 203°
2026-05-08 01:43 53.32497 -2.19019 3838 ft 212 kts 205°
2026-05-08 01:43 53.31251 -2.19988 4141 ft 227 kts 206°
2026-05-08 01:44 53.29837 -2.21098 4543 ft 240 kts 206°
2026-05-08 01:44 53.28354 -2.22256 5255 ft 239 kts 207°
2026-05-08 01:44 53.26964 -2.23335 5932 ft 239 kts 208°
2026-05-08 01:44 53.25514 -2.24457 6658 ft 237 kts 209°
2026-05-08 01:45 53.24135 -2.25521 7369 ft 236 kts 209°
2026-05-08 01:45 53.22713 -2.26618 7908 ft 241 kts 209°
2026-05-08 01:45 53.21244 -2.27750 8524 ft 243 kts 209°
2026-05-08 01:45 53.19673 -2.28958 9190 ft 245 kts 209°
2026-05-08 01:46 53.18255 -2.30050 9734 ft 248 kts 209°
2026-05-08 01:46 53.16685 -2.31257 10354 ft 250 kts 209°
2026-05-08 01:46 53.15131 -2.32193 10788 ft 263 kts 193°
2026-05-08 01:46 53.13217 -2.32049 11206 ft 282 kts 171°
2026-05-08 01:47 53.11399 -2.30951 11551 ft 298 kts 161°
2026-05-08 01:47 53.09414 -2.29464 11828 ft 315 kts 158°
2026-05-08 01:47 53.07568 -2.27887 12096 ft 330 kts 155°
2026-05-08 01:48 53.03401 -2.24260 12642 ft 359 kts 155°
2026-05-08 01:48 53.01279 -2.22418 12851 ft 373 kts 155°
2026-05-08 01:48 52.99161 -2.20574 13057 ft 386 kts 155°
2026-05-08 01:48 52.96907 -2.18629 13329 ft 397 kts 155°
2026-05-08 01:49 52.94551 -2.16597 13648 ft 406 kts 155°
2026-05-08 01:49 52.92059 -2.14450 14084 ft 412 kts 155°
2026-05-08 01:49 52.89688 -2.12411 14548 ft 415 kts 155°
2026-05-08 01:49 52.87455 -2.10493 14982 ft 418 kts 155°
2026-05-08 01:50 52.85020 -2.08403 15421 ft 422 kts 155°
2026-05-08 01:50 52.82468 -2.06215 15863 ft 426 kts 155°
2026-05-08 01:50 52.79920 -2.04033 16324 ft 429 kts 155°
2026-05-08 01:50 52.77475 -2.01940 16756 ft 431 kts 155°
2026-05-08 01:51 52.74812 -1.99664 17204 ft 434 kts 155°
2026-05-08 01:51 52.72384 -1.97591 17610 ft 437 kts 155°
2026-05-08 01:51 52.69694 -1.95289 18046 ft 440 kts 155°
2026-05-08 01:51 52.67170 -1.93096 18432 ft 443 kts 155°
2026-05-08 01:52 52.64448 -1.90751 18856 ft 445 kts 155°
2026-05-08 01:52 52.61810 -1.88453 19245 ft 448 kts 155°
2026-05-08 01:52 52.59183 -1.86198 19624 ft 450 kts 155°
2026-05-08 01:52 52.56481 -1.83900 20005 ft 453 kts 155°
2026-05-08 01:53 52.53774 -1.81609 20377 ft 455 kts 155°
2026-05-08 01:53 52.50964 -1.79236 20745 ft 457 kts 155°
2026-05-08 01:53 52.48518 -1.77175 21059 ft 459 kts 155°
2026-05-08 01:53 52.45821 -1.74905 21391 ft 462 kts 155°
2026-05-08 01:54 52.43266 -1.72757 21701 ft 464 kts 155°
2026-05-08 01:54 52.40318 -1.70276 22042 ft 466 kts 155°
2026-05-08 01:54 52.37603 -1.67661 22352 ft 470 kts 149°
2026-05-08 01:54 52.34961 -1.64501 22668 ft 475 kts 143°
2026-05-08 01:55 52.32501 -1.60952 22965 ft 478 kts 139°
2026-05-08 01:55 52.30374 -1.57506 23242 ft 481 kts 136°
2026-05-08 01:55 52.28067 -1.53524 23534 ft 483 kts 135°
2026-05-08 01:55 52.25797 -1.49593 23816 ft 485 kts 135°
2026-05-08 01:56 52.23612 -1.45762 24083 ft 487 kts 135°
2026-05-08 01:56 52.21367 -1.41863 24344 ft 489 kts 135°
2026-05-08 01:56 52.19102 -1.38001 24602 ft 490 kts 136°
2026-05-08 01:56 52.17030 -1.34498 24832 ft 492 kts 136°
2026-05-08 01:57 52.14604 -1.30411 25088 ft 494 kts 136°
2026-05-08 01:57 52.12388 -1.26686 25345 ft 495 kts 136°
2026-05-08 01:57 52.10923 -1.24225 25578 ft 494 kts 136°
2026-05-08 01:57 52.07971 -1.19271 26066 ft 491 kts 136°
2026-05-08 01:58 52.05707 -1.15474 26325 ft 492 kts 136°
2026-05-08 01:58 52.03243 -1.11343 26686 ft 491 kts 136°
2026-05-08 01:58 52.00926 -1.07507 27069 ft 489 kts 137°
2026-05-08 01:58 51.98553 -1.03721 27333 ft 489 kts 138°
2026-05-08 01:59 51.97057 -1.01433 27502 ft 489 kts 140°
2026-05-08 01:59 51.93769 -0.96737 27998 ft 486 kts 142°
2026-05-08 01:59 51.91329 -0.93350 28292 ft 486 kts 141°
2026-05-08 01:59 51.88827 -0.89822 28521 ft 487 kts 141°
2026-05-08 02:00 51.86453 -0.86445 28845 ft 485 kts 141°
2026-05-08 02:00 51.84095 -0.83000 29207 ft 484 kts 140°
2026-05-08 02:00 51.82546 -0.80738 29372 ft 484 kts 140°
2026-05-08 02:00 51.79315 -0.76082 29674 ft 485 kts 141°
2026-05-08 02:01 51.77674 -0.73736 29910 ft 483 kts 141°
2026-05-08 02:01 51.74521 -0.69245 30346 ft 481 kts 141°
2026-05-08 02:01 51.73029 -0.67122 30467 ft 482 kts 141°
2026-05-08 02:01 51.69986 -0.62801 30750 ft 482 kts 141°
2026-05-08 02:02 51.67693 -0.59548 31091 ft 479 kts 141°
2026-05-08 02:02 51.66131 -0.57277 31265 ft 480 kts 137°
2026-05-08 02:02 51.63376 -0.51966 31501 ft 485 kts 125°
2026-05-08 02:02 51.62371 -0.49318 31650 ft 486 kts 120°
2026-05-08 02:03 51.60895 -0.44327 31994 ft 484 kts 114°
2026-05-08 02:03 51.59764 -0.39744 32199 ft 485 kts 111°
2026-05-08 02:03 51.58379 -0.33314 32488 ft 485 kts 109°
2026-05-08 02:03 51.57670 -0.29876 32691 ft 484 kts 109°
2026-05-08 02:04 51.56740 -0.25407 32894 ft 484 kts 109°
2026-05-08 02:04 51.55294 -0.18514 33177 ft 484 kts 109°
2026-05-08 02:04 51.54304 -0.13825 33424 ft 483 kts 110°
2026-05-08 02:04 51.53617 -0.10580 33579 ft 483 kts 110°
2026-05-08 02:05 51.52218 -0.03993 33838 ft 483 kts 110°
2026-05-08 02:05 51.51542 -0.00819 33988 ft 482 kts 110°
2026-05-08 02:05 51.50507 0.04179 34241 ft 481 kts 109°
2026-05-08 02:05 51.49618 0.08560 34400 ft 482 kts 109°
2026-05-08 02:06 51.48617 0.13399 34585 ft 481 kts 109°
2026-05-08 02:06 51.47672 0.17912 34813 ft 480 kts 109°
2026-05-08 02:06 51.46637 0.22803 34988 ft 480 kts 110°
2026-05-08 02:06 51.45629 0.27547 34987 ft 482 kts 110°
2026-05-08 02:07 51.43563 0.37204 34996 ft 480 kts 110°
2026-05-08 02:07 51.41446 0.47042 34998 ft 480 kts 110°
2026-05-08 02:08 51.39332 0.56827 34997 ft 480 kts 110°
2026-05-08 02:08 51.37250 0.66686 34997 ft 480 kts 110°
2026-05-08 02:09 51.35166 0.76184 34996 ft 480 kts 110°
2026-05-08 02:09 51.32968 0.86103 34996 ft 480 kts 110°
2026-05-08 02:10 51.30802 0.95846 34999 ft 480 kts 110°
2026-05-08 02:10 51.28638 1.05645 34996 ft 480 kts 109°
2026-05-08 02:11 51.26958 1.15656 34997 ft 481 kts 104°
2026-05-08 02:11 51.25353 1.25748 34997 ft 481 kts 105°
2026-05-08 02:12 51.23728 1.35696 34996 ft 481 kts 105°
2026-05-08 02:12 51.22102 1.45554 34998 ft 481 kts 105°
2026-05-08 02:13 51.20549 1.55378 34997 ft 481 kts 104°
2026-05-08 02:13 51.18969 1.65293 34997 ft 481 kts 105°
2026-05-08 02:14 51.17321 1.75103 34997 ft 481 kts 106°
2026-05-08 02:14 51.15578 1.85396 34997 ft 481 kts 106°
2026-05-08 02:15 51.13870 1.95472 34996 ft 481 kts 105°
2026-05-08 02:15 51.12793 2.05486 34999 ft 481 kts 95°
2026-05-08 02:16 51.12237 2.15969 34996 ft 481 kts 94°
2026-05-08 02:16 51.11751 2.26166 34997 ft 481 kts 95°
2026-05-08 02:17 51.11182 2.36345 34997 ft 481 kts 95°
2026-05-08 02:17 51.10595 2.46466 34997 ft 481 kts 95°
2026-05-08 02:18 51.10014 2.56393 34998 ft 481 kts 95°
2026-05-08 02:18 51.09173 2.66566 34998 ft 481 kts 103°
2026-05-08 02:19 51.07487 2.76504 34997 ft 480 kts 107°
2026-05-08 02:19 51.05635 2.86420 34997 ft 480 kts 107°
2026-05-08 02:20 51.03834 2.96131 34997 ft 480 kts 107°
2026-05-08 02:20 51.02055 3.05723 34998 ft 480 kts 107°
2026-05-08 02:21 51.00256 3.15451 34996 ft 480 kts 106°
2026-05-08 02:21 50.98621 3.24926 34997 ft 480 kts 107°
2026-05-08 02:22 50.96752 3.34976 34998 ft 480 kts 107°
2026-05-08 02:22 50.94852 3.45006 34997 ft 480 kts 108°
2026-05-08 02:23 50.93091 3.54274 34998 ft 480 kts 108°
2026-05-08 02:23 50.91186 3.64301 34996 ft 480 kts 108°
2026-05-08 02:24 50.89353 3.73840 34997 ft 480 kts 108°
2026-05-08 02:24 50.87512 3.83330 34997 ft 480 kts 108°
2026-05-08 02:25 50.85624 3.93009 34996 ft 480 kts 108°
2026-05-08 02:25 50.83880 4.01917 34997 ft 480 kts 108°
2026-05-08 02:26 50.82003 4.11469 34995 ft 480 kts 108°
2026-05-08 02:26 50.80109 4.21345 34997 ft 480 kts 107°
2026-05-08 02:27 50.78233 4.31119 34998 ft 480 kts 108°
2026-05-08 02:27 50.76310 4.40920 34997 ft 480 kts 108°
2026-05-08 02:28 50.74435 4.50676 34997 ft 480 kts 108°
2026-05-08 02:28 50.72527 4.60241 34996 ft 480 kts 108°
2026-05-08 02:29 50.70594 4.69790 34997 ft 480 kts 109°
2026-05-08 02:29 50.68636 4.79422 34997 ft 480 kts 109°
2026-05-08 02:30 50.66652 4.89166 34996 ft 480 kts 109°
2026-05-08 02:30 50.64147 4.98762 34998 ft 479 kts 116°
2026-05-08 02:31 50.61438 5.07741 34997 ft 479 kts 116°
2026-05-08 02:31 50.58757 5.16728 34996 ft 479 kts 116°
2026-05-08 02:32 50.56077 5.25731 34999 ft 479 kts 116°
2026-05-08 02:32 50.53354 5.34872 34996 ft 479 kts 116°
2026-05-08 02:33 50.50603 5.44200 34997 ft 479 kts 115°
2026-05-08 02:33 50.47930 5.53373 34997 ft 479 kts 116°
2026-05-08 02:34 50.45227 5.62473 34997 ft 479 kts 116°
2026-05-08 02:34 50.42526 5.71623 34997 ft 479 kts 116°
2026-05-08 02:35 50.39819 5.80692 34997 ft 479 kts 116°
2026-05-08 02:35 50.37094 5.89659 34997 ft 479 kts 117°
2026-05-08 02:36 50.34360 5.98615 34997 ft 479 kts 117°
2026-05-08 02:36 50.31630 6.07541 34997 ft 479 kts 117°
2026-05-08 02:37 50.28774 6.16738 34996 ft 478 kts 119°
2026-05-08 02:37 50.25843 6.25028 34997 ft 478 kts 121°
2026-05-08 02:38 50.22718 6.33866 34998 ft 478 kts 120°
2026-05-08 02:38 50.19649 6.42499 34991 ft 478 kts 123°
2026-05-08 02:39 50.16117 6.50228 34999 ft 476 kts 131°
2026-05-08 02:39 50.12175 6.57477 34997 ft 475 kts 133°
2026-05-08 02:40 50.08111 6.64859 34997 ft 475 kts 133°
2026-05-08 02:40 50.04065 6.72232 34998 ft 475 kts 132°
2026-05-08 02:41 49.99797 6.80007 34997 ft 475 kts 132°
2026-05-08 02:41 49.95569 6.87723 34997 ft 475 kts 131°
2026-05-08 02:42 49.91558 6.95176 34995 ft 475 kts 132°
2026-05-08 02:42 49.87484 7.02648 34997 ft 475 kts 132°
2026-05-08 02:43 49.83351 7.10176 34997 ft 475 kts 132°
2026-05-08 02:43 49.79334 7.17460 34997 ft 475 kts 133°
2026-05-08 02:44 49.75390 7.24585 34997 ft 475 kts 133°
2026-05-08 02:44 49.71156 7.32214 34997 ft 475 kts 133°
2026-05-08 02:45 49.67152 7.39407 34997 ft 475 kts 133°
2026-05-08 02:45 49.62910 7.47005 34997 ft 475 kts 133°
2026-05-08 02:46 49.58957 7.54066 34997 ft 475 kts 133°
2026-05-08 02:46 49.55375 7.60447 34997 ft 475 kts 133°
2026-05-08 02:47 49.50520 7.69073 34997 ft 475 kts 133°
2026-05-08 02:47 49.46339 7.76479 34996 ft 475 kts 133°
2026-05-08 02:48 49.42191 7.83806 34997 ft 475 kts 133°
2026-05-08 02:48 49.38765 7.89841 34996 ft 475 kts 133°
2026-05-08 02:49 49.34022 7.98175 34997 ft 475 kts 133°
2026-05-08 02:49 49.29832 8.05516 34997 ft 475 kts 133°
2026-05-08 02:50 49.26295 8.11696 34998 ft 475 kts 133°
2026-05-08 02:50 49.21210 8.20556 34997 ft 475 kts 133°
2026-05-08 02:51 49.17192 8.27629 34997 ft 475 kts 133°
2026-05-08 02:51 49.13624 8.33813 34997 ft 475 kts 133°
2026-05-08 02:52 49.08698 8.42287 34997 ft 475 kts 134°
2026-05-08 02:52 49.05120 8.48425 34997 ft 475 kts 134°
2026-05-08 02:53 49.01049 8.55400 34997 ft 475 kts 134°
2026-05-08 02:53 48.96855 8.62477 34997 ft 474 kts 135°
2026-05-08 02:54 48.92606 8.69214 34996 ft 474 kts 136°
2026-05-08 02:54 48.88046 8.76447 34996 ft 474 kts 136°
2026-05-08 02:55 48.81659 8.86598 34997 ft 474 kts 136°
2026-05-08 02:56 48.77320 8.93484 34996 ft 474 kts 136°
2026-05-08 02:56 48.72964 9.00468 34998 ft 474 kts 135°
2026-05-08 02:57 48.68788 9.07157 34996 ft 474 kts 135°
2026-05-08 02:57 48.64429 9.14075 34996 ft 474 kts 136°
2026-05-08 02:58 48.60232 9.20705 34997 ft 474 kts 136°
2026-05-08 02:58 48.55762 9.27758 34996 ft 474 kts 135°
2026-05-08 02:59 48.51446 9.34611 34997 ft 474 kts 136°
2026-05-08 02:59 48.47057 9.41469 34997 ft 474 kts 136°
2026-05-08 03:00 48.42728 9.48200 34997 ft 474 kts 136°
2026-05-08 03:00 48.38240 9.55166 34998 ft 474 kts 136°
2026-05-08 03:01 48.33715 9.62229 34995 ft 475 kts 134°
2026-05-08 03:01 48.29766 9.69400 34996 ft 476 kts 130°
2026-05-08 03:02 48.25822 9.76787 34997 ft 476 kts 131°
2026-05-08 03:02 48.21684 9.84444 34997 ft 475 kts 131°
2026-05-08 03:03 48.17635 9.91891 34997 ft 475 kts 131°
2026-05-08 03:03 48.13490 9.99480 34997 ft 475 kts 131°
2026-05-08 03:04 48.09430 10.07007 34997 ft 476 kts 130°
2026-05-08 03:04 48.05464 10.14360 34997 ft 477 kts 131°
2026-05-08 03:05 48.01364 10.21885 34997 ft 477 kts 131°
2026-05-08 03:05 47.97343 10.29224 34996 ft 477 kts 131°
2026-05-08 03:06 47.93462 10.36283 34997 ft 477 kts 131°
2026-05-08 03:06 47.89478 10.43506 34996 ft 477 kts 131°
2026-05-08 03:07 47.85460 10.50771 34996 ft 477 kts 131°
2026-05-08 03:07 47.81352 10.58179 34996 ft 477 kts 131°
2026-05-08 03:08 47.77212 10.65623 34997 ft 477 kts 131°
2026-05-08 03:08 47.73145 10.72917 34996 ft 477 kts 131°
2026-05-08 03:09 47.69177 10.80013 34999 ft 477 kts 131°
2026-05-08 03:09 47.65192 10.87123 34997 ft 477 kts 131°
2026-05-08 03:10 47.61046 10.94501 34997 ft 477 kts 131°
2026-05-08 03:10 47.57081 11.01536 34997 ft 477 kts 132°
2026-05-08 03:11 47.52977 11.08799 34996 ft 477 kts 132°
2026-05-08 03:11 47.48896 11.16004 34998 ft 477 kts 132°
2026-05-08 03:12 47.44771 11.23266 34995 ft 477 kts 132°
2026-05-08 03:12 47.40730 11.30361 34997 ft 477 kts 132°
2026-05-08 03:13 47.36661 11.37488 34996 ft 477 kts 132°
2026-05-08 03:13 47.32517 11.44726 34998 ft 477 kts 132°
2026-05-08 03:14 47.28324 11.52053 34996 ft 477 kts 131°
2026-05-08 03:14 47.24307 11.59108 34997 ft 477 kts 132°
2026-05-08 03:15 47.20268 11.66089 34997 ft 477 kts 132°
2026-05-08 03:15 47.16213 11.73067 34997 ft 477 kts 132°
2026-05-08 03:16 47.12182 11.79991 34997 ft 477 kts 133°
2026-05-08 03:16 47.08223 11.87458 34997 ft 478 kts 125°
2026-05-08 03:17 47.05124 11.95758 34997 ft 480 kts 118°
2026-05-08 03:17 47.02280 12.04260 34996 ft 480 kts 117°
2026-05-08 03:18 46.99471 12.12598 34997 ft 480 kts 117°
2026-05-08 03:18 46.96676 12.20849 34997 ft 480 kts 118°
2026-05-08 03:19 46.93873 12.29088 34997 ft 480 kts 118°
2026-05-08 03:19 46.91068 12.37474 34997 ft 480 kts 117°
2026-05-08 03:20 46.88257 12.45863 34998 ft 480 kts 117°
2026-05-08 03:20 46.85394 12.54295 34997 ft 480 kts 118°
2026-05-08 03:21 46.82469 12.62859 34997 ft 480 kts 118°
2026-05-08 03:21 46.79593 12.71244 34997 ft 480 kts 118°
2026-05-08 03:22 46.76575 12.80013 34996 ft 480 kts 118°
2026-05-08 03:22 46.73640 12.88511 34997 ft 480 kts 118°
2026-05-08 03:23 46.70751 12.96867 34997 ft 480 kts 117°
2026-05-08 03:23 46.68094 13.04641 34998 ft 480 kts 118°
2026-05-08 03:24 46.65232 13.12834 34997 ft 480 kts 118°
2026-05-08 03:24 46.62281 13.21224 34998 ft 480 kts 118°
2026-05-08 03:25 46.59419 13.29341 34997 ft 480 kts 118°
2026-05-08 03:25 46.56118 13.37548 34997 ft 478 kts 127°
2026-05-08 03:26 46.52181 13.44548 34998 ft 476 kts 135°
2026-05-08 03:26 46.47819 13.51015 34998 ft 475 kts 136°
2026-05-08 03:27 46.43400 13.57585 34997 ft 475 kts 136°
2026-05-08 03:27 46.38940 13.64263 34995 ft 475 kts 136°
2026-05-08 03:28 46.34461 13.70973 34996 ft 476 kts 136°
2026-05-08 03:28 46.30079 13.77600 34997 ft 476 kts 135°
2026-05-08 03:29 46.25633 13.84322 34996 ft 478 kts 136°
2026-05-08 03:29 46.21168 13.91013 34997 ft 477 kts 136°
2026-05-08 03:30 46.14436 14.01104 34997 ft 477 kts 136°
2026-05-08 03:31 46.05566 14.14275 34997 ft 477 kts 136°
2026-05-08 03:32 45.99011 14.23927 34997 ft 477 kts 136°
2026-05-08 03:32 45.95341 14.29324 34996 ft 477 kts 136°
2026-05-08 03:33 45.90359 14.36943 34997 ft 478 kts 134°
2026-05-08 03:33 45.86116 14.43654 34997 ft 478 kts 134°
2026-05-08 03:34 45.82493 14.49338 34997 ft 478 kts 134°
2026-05-08 03:34 45.77657 14.56895 34996 ft 477 kts 134°
2026-05-08 03:35 45.74125 14.62400 34998 ft 477 kts 135°
2026-05-08 03:35 45.69715 14.69325 34996 ft 478 kts 134°
2026-05-08 03:36 45.65557 14.75910 34997 ft 477 kts 134°
2026-05-08 03:36 45.60528 14.83705 34997 ft 477 kts 135°
2026-05-08 03:37 45.56948 14.89228 34996 ft 477 kts 135°
2026-05-08 03:37 45.52602 14.95923 34997 ft 477 kts 135°
2026-05-08 03:38 45.48269 15.02636 34997 ft 478 kts 134°
2026-05-08 03:38 45.43216 15.09948 34997 ft 476 kts 138°
2026-05-08 03:39 45.39311 15.15403 34997 ft 477 kts 137°
2026-05-08 03:39 45.34070 15.22800 34997 ft 477 kts 137°
2026-05-08 03:40 45.30216 15.28258 34997 ft 477 kts 137°
2026-05-08 03:40 45.25604 15.34786 34997 ft 477 kts 137°
2026-05-08 03:41 45.21115 15.41248 34996 ft 477 kts 137°
2026-05-08 03:41 45.16536 15.47797 34997 ft 477 kts 137°
2026-05-08 03:42 45.11930 15.54340 34998 ft 477 kts 137°
2026-05-08 03:42 45.07423 15.60715 34997 ft 477 kts 137°
2026-05-08 03:43 45.02956 15.67014 34997 ft 477 kts 137°
2026-05-08 03:43 44.98212 15.73687 34998 ft 477 kts 137°
2026-05-08 03:44 44.93755 15.79939 34997 ft 477 kts 137°
2026-05-08 03:44 44.89212 15.86296 34996 ft 477 kts 137°
2026-05-08 03:45 44.84788 15.92474 34997 ft 477 kts 137°
2026-05-08 03:45 44.80171 15.98906 34996 ft 477 kts 137°
2026-05-08 03:46 44.75623 16.05226 34997 ft 477 kts 137°
2026-05-08 03:46 44.71000 16.11635 34997 ft 476 kts 137°
2026-05-08 03:47 44.66424 16.17966 34997 ft 476 kts 137°
2026-05-08 03:47 44.61871 16.24249 34997 ft 476 kts 137°
2026-05-08 03:48 44.57305 16.30535 34997 ft 476 kts 137°
2026-05-08 03:48 44.52651 16.36928 34997 ft 476 kts 137°
2026-05-08 03:49 44.47921 16.43411 34997 ft 476 kts 138°
2026-05-08 03:49 44.43239 16.49811 34997 ft 476 kts 138°
2026-05-08 03:50 44.38645 16.56077 34997 ft 476 kts 138°
2026-05-08 03:50 44.34072 16.62299 34997 ft 476 kts 138°
2026-05-08 03:51 44.29515 16.68484 34997 ft 476 kts 138°
2026-05-08 03:51 44.24834 16.74824 34997 ft 476 kts 138°
2026-05-08 03:52 44.20213 16.81069 34996 ft 476 kts 138°
2026-05-08 03:52 44.15721 16.87125 34997 ft 476 kts 138°
2026-05-08 03:53 44.11150 16.93275 34997 ft 476 kts 138°
2026-05-08 03:53 44.06522 16.99487 34997 ft 477 kts 138°
2026-05-08 03:54 44.01914 17.05658 34997 ft 478 kts 138°
2026-05-08 03:54 43.97358 17.11745 34997 ft 478 kts 138°
2026-05-08 03:55 43.92638 17.18038 34996 ft 478 kts 138°
2026-05-08 03:55 43.88001 17.24206 34997 ft 478 kts 138°
2026-05-08 03:56 43.83391 17.30323 34995 ft 478 kts 138°
2026-05-08 03:56 43.78692 17.36557 34997 ft 478 kts 138°
2026-05-08 03:57 43.73989 17.42820 34997 ft 478 kts 139°
2026-05-08 03:57 43.69487 17.48743 34997 ft 478 kts 139°
2026-05-08 03:58 43.64833 17.54843 34997 ft 478 kts 139°
2026-05-08 03:58 43.60103 17.61033 34997 ft 478 kts 139°
2026-05-08 03:59 43.55421 17.67143 34996 ft 477 kts 140°
2026-05-08 03:59 43.50455 17.73020 34997 ft 476 kts 143°
2026-05-08 04:00 43.45610 17.78562 34997 ft 476 kts 142°
2026-05-08 04:00 43.40723 17.84192 34998 ft 476 kts 142°
2026-05-08 04:01 43.35680 17.90013 34997 ft 477 kts 142°
2026-05-08 04:01 43.30906 17.95518 34997 ft 476 kts 142°
2026-05-08 04:02 43.25942 18.01312 34997 ft 477 kts 142°
2026-05-08 04:02 43.20927 18.07145 34996 ft 477 kts 142°
2026-05-08 04:03 43.15994 18.12845 34997 ft 476 kts 142°
2026-05-08 04:03 43.08630 18.21317 34997 ft 476 kts 142°
2026-05-08 04:04 43.03690 18.26981 34997 ft 476 kts 142°
2026-05-08 04:04 42.98793 18.32584 34997 ft 476 kts 142°
2026-05-08 04:05 42.93851 18.38225 34997 ft 476 kts 142°
2026-05-08 04:05 42.88812 18.43964 34997 ft 476 kts 142°
2026-05-08 04:06 42.83792 18.49669 34997 ft 477 kts 142°
2026-05-08 04:06 42.78931 18.55181 34996 ft 476 kts 142°
2026-05-08 04:07 42.74370 18.60344 34997 ft 476 kts 142°
2026-05-08 04:07 42.69303 18.66065 34997 ft 476 kts 142°
2026-05-08 04:08 42.64555 18.71416 34996 ft 476 kts 142°
2026-05-08 04:08 42.59692 18.76885 34997 ft 476 kts 143°
2026-05-08 04:09 42.54766 18.82413 34997 ft 476 kts 143°
2026-05-08 04:09 42.49870 18.87897 34998 ft 476 kts 143°
2026-05-08 04:10 42.44737 18.93634 34996 ft 476 kts 143°
2026-05-08 04:10 42.39886 18.99042 34996 ft 476 kts 143°
2026-05-08 04:11 42.35015 19.04463 34996 ft 476 kts 143°
2026-05-08 04:11 42.30137 19.09880 34997 ft 476 kts 143°
2026-05-08 04:12 42.25217 19.15333 34997 ft 476 kts 143°
2026-05-08 04:12 42.20236 19.20880 34997 ft 476 kts 143°
2026-05-08 04:13 42.15317 19.26319 34997 ft 476 kts 143°
2026-05-08 04:13 42.10278 19.31853 34997 ft 476 kts 143°
2026-05-08 04:14 42.05329 19.37277 34997 ft 476 kts 143°
2026-05-08 04:14 42.00352 19.42724 34999 ft 476 kts 143°
2026-05-08 04:15 41.95644 19.47821 34998 ft 476 kts 144°
2026-05-08 04:15 41.90848 19.52699 34998 ft 475 kts 145°
2026-05-08 04:16 41.85756 19.57885 34998 ft 475 kts 145°
2026-05-08 04:16 41.80634 19.63109 34997 ft 475 kts 145°
2026-05-08 04:17 41.75657 19.68181 34998 ft 475 kts 145°
2026-05-08 04:17 41.70707 19.73220 34997 ft 475 kts 145°
2026-05-08 04:18 41.66082 19.77986 34997 ft 476 kts 145°
2026-05-08 04:18 41.61266 19.82920 34998 ft 476 kts 145°
2026-05-08 04:19 41.56204 19.88078 34996 ft 475 kts 145°
2026-05-08 04:19 41.51285 19.93074 34996 ft 476 kts 145°
2026-05-08 04:20 41.46326 19.98096 34996 ft 477 kts 145°
2026-05-08 04:20 41.41494 20.02980 34997 ft 477 kts 145°
2026-05-08 04:21 41.36509 20.08009 34997 ft 477 kts 145°
2026-05-08 04:21 41.31428 20.13124 34998 ft 477 kts 145°
2026-05-08 04:22 41.26593 20.17982 34997 ft 477 kts 145°
2026-05-08 04:22 41.21738 20.22851 34997 ft 477 kts 145°
2026-05-08 04:23 41.16790 20.27803 34998 ft 477 kts 145°
2026-05-08 04:23 41.11816 20.32772 34996 ft 477 kts 145°
2026-05-08 04:24 41.06637 20.37936 34997 ft 477 kts 145°
2026-05-08 04:24 41.02642 20.41913 34993 ft 477 kts 146°
2026-05-08 04:25 40.97556 20.46966 34998 ft 477 kts 146°
2026-05-08 04:25 40.91563 20.52908 34997 ft 477 kts 146°
2026-05-08 04:26 40.87352 20.57075 34998 ft 477 kts 146°
2026-05-08 04:26 40.82493 20.61875 34997 ft 477 kts 146°
2026-05-08 04:27 40.77379 20.66917 34997 ft 477 kts 146°
2026-05-08 04:27 40.72428 20.71811 34997 ft 477 kts 145°
2026-05-08 04:28 40.67405 20.76765 34997 ft 477 kts 146°
2026-05-08 04:28 40.62296 20.81763 34996 ft 477 kts 146°
2026-05-08 04:29 40.57192 20.86742 34996 ft 477 kts 146°
2026-05-08 04:29 40.52238 20.91570 34996 ft 477 kts 146°
2026-05-08 04:30 40.47044 20.96701 34997 ft 477 kts 143°
2026-05-08 04:30 40.42271 21.02122 34998 ft 478 kts 140°
2026-05-08 04:31 40.37650 21.07567 34997 ft 478 kts 141°
2026-05-08 04:31 40.33135 21.12789 34997 ft 478 kts 141°
2026-05-08 04:32 40.28231 21.18418 34997 ft 478 kts 141°
2026-05-08 04:32 40.23407 21.23938 34997 ft 478 kts 141°
2026-05-08 04:33 40.18663 21.29440 34997 ft 478 kts 141°
2026-05-08 04:33 40.13925 21.34890 34997 ft 478 kts 141°
2026-05-08 04:34 40.09061 21.40423 34997 ft 478 kts 141°
2026-05-08 04:34 40.04323 21.45797 34997 ft 478 kts 141°
2026-05-08 04:35 39.99558 21.51195 34997 ft 478 kts 141°
2026-05-08 04:35 39.94742 21.56649 34998 ft 478 kts 141°
2026-05-08 04:36 39.90086 21.61890 34994 ft 478 kts 141°
2026-05-08 04:36 39.85380 21.67175 34998 ft 478 kts 141°
2026-05-08 04:37 39.80494 21.72653 34996 ft 478 kts 141°
2026-05-08 04:37 39.75854 21.77843 34997 ft 478 kts 141°
2026-05-08 04:38 39.71053 21.83205 34998 ft 478 kts 141°
2026-05-08 04:38 39.66192 21.88689 34996 ft 478 kts 141°
2026-05-08 04:39 39.61539 21.93923 34997 ft 478 kts 141°
2026-05-08 04:39 39.56747 21.99282 34997 ft 478 kts 141°
2026-05-08 04:40 39.51906 22.04677 34998 ft 478 kts 141°
2026-05-08 04:40 39.46915 22.10224 34997 ft 478 kts 142°
2026-05-08 04:41 39.42070 22.15598 34997 ft 478 kts 142°
2026-05-08 04:41 39.37288 22.20891 34997 ft 478 kts 142°
2026-05-08 04:42 39.32366 22.26329 34997 ft 478 kts 142°
2026-05-08 04:42 39.27463 22.31736 34997 ft 478 kts 142°
2026-05-08 04:43 39.22735 22.36939 34997 ft 478 kts 142°
2026-05-08 04:43 39.17924 22.42224 34998 ft 478 kts 142°
2026-05-08 04:44 39.13258 22.47340 34997 ft 478 kts 142°
2026-05-08 04:44 39.08368 22.52693 34997 ft 478 kts 142°
2026-05-08 04:45 39.03567 22.57938 34997 ft 478 kts 142°
2026-05-08 04:45 38.98838 22.63095 34996 ft 478 kts 142°
2026-05-08 04:46 38.94031 22.68327 34991 ft 478 kts 142°
2026-05-08 04:46 38.91579 22.70992 34876 ft 479 kts 142°
2026-05-08 04:46 38.89168 22.73611 34715 ft 479 kts 142°
2026-05-08 04:47 38.86649 22.76344 34541 ft 476 kts 142°
2026-05-08 04:47 38.84277 22.78914 34370 ft 465 kts 142°
2026-05-08 04:47 38.81934 22.81453 34198 ft 454 kts 142°
2026-05-08 04:47 38.79698 22.83872 34031 ft 446 kts 142°
2026-05-08 04:48 38.77409 22.86346 33858 ft 437 kts 142°
2026-05-08 04:48 38.75541 22.88364 33714 ft 430 kts 142°
2026-05-08 04:48 38.73294 22.90790 33536 ft 422 kts 142°
2026-05-08 04:48 38.71185 22.93064 33367 ft 414 kts 142°
2026-05-08 04:49 38.69145 22.95263 33201 ft 410 kts 142°
2026-05-08 04:49 38.67149 22.97413 33043 ft 410 kts 142°
2026-05-08 04:49 38.65019 22.99705 32872 ft 411 kts 142°
2026-05-08 04:49 38.62895 23.01989 32706 ft 414 kts 142°
2026-05-08 04:50 38.60853 23.04183 32544 ft 414 kts 142°
2026-05-08 04:50 38.58820 23.06365 32381 ft 411 kts 142°
2026-05-08 04:50 38.56794 23.08538 32219 ft 409 kts 143°
2026-05-08 04:50 38.54684 23.10800 32048 ft 407 kts 143°
2026-05-08 04:51 38.52705 23.12919 31889 ft 406 kts 143°
2026-05-08 04:51 38.50590 23.15183 31717 ft 404 kts 143°
2026-05-08 04:51 38.48510 23.17408 31546 ft 403 kts 143°
2026-05-08 04:51 38.46441 23.19619 31377 ft 401 kts 143°
2026-05-08 04:52 38.44531 23.21658 31219 ft 400 kts 143°
2026-05-08 04:52 38.42380 23.23953 31042 ft 398 kts 143°
2026-05-08 04:52 38.40437 23.26044 30881 ft 397 kts 142°
2026-05-08 04:52 38.38341 23.28294 30706 ft 395 kts 143°
2026-05-08 04:53 38.36321 23.30450 30537 ft 393 kts 143°
2026-05-08 04:53 38.34196 23.32709 30359 ft 392 kts 143°
2026-05-08 04:53 38.32420 23.34593 30210 ft 390 kts 143°
2026-05-08 04:53 38.30360 23.36776 30036 ft 389 kts 143°
2026-05-08 04:54 38.28347 23.38906 29865 ft 387 kts 143°
2026-05-08 04:54 38.26344 23.41025 29695 ft 385 kts 143°
2026-05-08 04:54 38.24340 23.43144 29524 ft 384 kts 143°
2026-05-08 04:54 38.22437 23.45155 29361 ft 382 kts 143°
2026-05-08 04:55 38.20498 23.47203 29194 ft 381 kts 143°
2026-05-08 04:55 38.18580 23.49229 29030 ft 379 kts 143°
2026-05-08 04:55 38.16623 23.51299 28860 ft 378 kts 143°
2026-05-08 04:55 38.14610 23.53419 28684 ft 376 kts 143°
2026-05-08 04:56 38.12828 23.55308 28528 ft 375 kts 143°
2026-05-08 04:56 38.10911 23.57344 28360 ft 373 kts 143°
2026-05-08 04:56 38.08950 23.59415 28187 ft 371 kts 143°
2026-05-08 04:56 38.07121 23.61340 28025 ft 369 kts 143°
2026-05-08 04:57 38.05203 23.63352 27854 ft 368 kts 143°
2026-05-08 04:57 38.03369 23.65275 27690 ft 366 kts 143°
2026-05-08 04:57 38.01537 23.67192 27526 ft 364 kts 143°
2026-05-08 04:57 37.99559 23.69262 27347 ft 362 kts 143°
2026-05-08 04:58 37.97812 23.71088 27189 ft 361 kts 143°
2026-05-08 04:58 37.95870 23.73118 27012 ft 359 kts 143°
2026-05-08 04:58 37.94092 23.74976 26849 ft 358 kts 143°
2026-05-08 04:58 37.92332 23.76813 26688 ft 356 kts 143°
2026-05-08 04:59 37.90481 23.78746 26518 ft 354 kts 143°
2026-05-08 04:59 37.88930 23.80455 26370 ft 355 kts 139°
2026-05-08 04:59 37.87297 23.82630 26202 ft 355 kts 134°
2026-05-08 04:59 37.85813 23.84852 26038 ft 354 kts 132°
2026-05-08 05:00 37.84334 23.87123 25872 ft 352 kts 132°
2026-05-08 05:00 37.82822 23.89426 25702 ft 351 kts 133°
2026-05-08 05:00 37.81317 23.91701 25533 ft 349 kts 133°
2026-05-08 05:00 37.79872 23.93874 25370 ft 348 kts 133°
2026-05-08 05:01 37.78337 23.96173 25196 ft 346 kts 133°
2026-05-08 05:01 37.76849 23.98399 25027 ft 345 kts 133°
2026-05-08 05:01 37.75562 24.00363 24877 ft 342 kts 132°
2026-05-08 05:01 37.74100 24.02580 24706 ft 338 kts 133°
2026-05-08 05:02 37.72642 24.04771 24533 ft 332 kts 133°
2026-05-08 05:02 37.71307 24.06767 24372 ft 327 kts 133°
2026-05-08 05:02 37.69925 24.08825 24203 ft 322 kts 133°
2026-05-08 05:02 37.68677 24.10681 24048 ft 318 kts 133°
2026-05-08 05:03 37.67308 24.12713 23874 ft 313 kts 133°
2026-05-08 05:03 37.66007 24.14642 23709 ft 308 kts 133°
2026-05-08 05:03 37.64758 24.16493 23508 ft 305 kts 134°
2026-05-08 05:03 37.63495 24.18364 23276 ft 303 kts 134°
2026-05-08 05:04 37.62197 24.20285 23037 ft 301 kts 134°
2026-05-08 05:04 37.61011 24.22041 22817 ft 299 kts 134°
2026-05-08 05:04 37.59688 24.23998 22601 ft 295 kts 134°
2026-05-08 05:04 37.58530 24.25711 22410 ft 291 kts 134°
2026-05-08 05:05 37.57250 24.27604 22168 ft 286 kts 134°
2026-05-08 05:05 37.56441 24.28751 22007 ft 282 kts 138°
2026-05-08 05:05 37.54510 24.30819 21675 ft 274 kts 149°
2026-05-08 05:05 37.53043 24.32053 21443 ft 271 kts 152°
2026-05-08 05:06 37.51534 24.33240 21206 ft 269 kts 153°
2026-05-08 05:06 37.50070 24.34372 20977 ft 269 kts 153°
2026-05-08 05:06 37.48578 24.35528 20744 ft 270 kts 153°
2026-05-08 05:06 37.47062 24.36706 20510 ft 272 kts 153°
2026-05-08 05:07 37.46083 24.37467 20358 ft 272 kts 153°
2026-05-08 05:07 37.44113 24.39002 20048 ft 269 kts 153°
2026-05-08 05:07 37.42541 24.40229 19799 ft 268 kts 153°
2026-05-08 05:07 37.41051 24.41392 19562 ft 266 kts 153°
2026-05-08 05:08 37.39663 24.42475 19339 ft 264 kts 153°
2026-05-08 05:08 37.38108 24.43689 19086 ft 261 kts 153°
2026-05-08 05:08 37.36626 24.44845 18857 ft 254 kts 153°
2026-05-08 05:08 37.35211 24.45950 18618 ft 250 kts 153°
2026-05-08 05:09 37.33807 24.47046 18377 ft 249 kts 153°
2026-05-08 05:09 37.32367 24.48168 18130 ft 246 kts 153°
2026-05-08 05:09 37.31016 24.49223 17886 ft 240 kts 153°
2026-05-08 05:09 37.29660 24.50280 17627 ft 233 kts 153°
2026-05-08 05:10 37.28385 24.51273 17377 ft 226 kts 153°
2026-05-08 05:10 37.26242 24.52952 16947 ft 217 kts 153°
2026-05-08 05:10 37.25035 24.53904 16703 ft 214 kts 153°
2026-05-08 05:11 37.23483 24.55124 16391 ft 212 kts 154°
2026-05-08 05:11 37.22292 24.56058 16152 ft 211 kts 154°
2026-05-08 05:11 37.21369 24.56780 15968 ft 211 kts 154°
2026-05-08 05:11 37.20689 24.57312 15833 ft 211 kts 154°
2026-05-08 05:12 37.19641 24.58135 15627 ft 212 kts 153°
2026-05-08 05:12 37.18124 24.59332 15334 ft 214 kts 153°
2026-05-08 05:12 37.16955 24.60249 15105 ft 214 kts 153°